This is the latest recevied weather packets stored in our database for station/object SY3EBK-13. If no packets are shown the sender has not sent any weather packets the latest 1 day(s).
| Time | Temp. | Humidity | Pressure | Rain* | Wind** | Luminosity | Snow |
|---|---|---|---|---|---|---|---|
| 1778035226 | 10° C | 52% | 915.3 hPa | - | 0 m/s | - | - |
| 1778034326 | 10° C | 54% | 915.4 hPa | - | 0 m/s | - | - |
| 1778033426 | 10° C | 56% | 915.5 hPa | - | 0 m/s | - | - |
| 1778032526 | 9.44° C | 63% | 915.6 hPa | - | 0 m/s | - | - |
| 1778031626 | 9.44° C | 67% | 915.6 hPa | - | 0 m/s | - | - |
| 1778030726 | 10° C | 62% | 915.6 hPa | - | 0 m/s | - | - |
| 1778029825 | 10° C | 65% | 915.7 hPa | - | 0 m/s | - | - |
| 1778028926 | 10.56° C | 59% | 915.7 hPa | - | 0 m/s | - | - |
| 1778028026 | 10.56° C | 61% | 915.6 hPa | - | 0 m/s | - | - |
| 1778027126 | 10.56° C | 63% | 915.8 hPa | - | 0 m/s | - | - |
| 1778026226 | 10° C | 68% | 916 hPa | - | 0 m/s | - | - |
| 1778025326 | 10° C | 70% | 916.1 hPa | - | 0 m/s | - | - |
| 1778024426 | 10° C | 71% | 916.3 hPa | - | 0 m/s | - | - |
| 1778023526 | 10.56° C | 70% | 916.3 hPa | - | 0 m/s | - | - |
| 1778022626 | 10.56° C | 69% | 916.6 hPa | - | 0 m/s | - | - |
| 1778021726 | 10.56° C | 68% | 916.6 hPa | - | 0 m/s | - | - |
| 1778020826 | 10.56° C | 66% | 916.8 hPa | - | 0 m/s | - | - |
| 1778019926 | 10.56° C | 64% | 916.8 hPa | - | 0 m/s | - | - |
| 1778019026 | 10.56° C | 62% | 916.9 hPa | - | 0 m/s | - | - |
| 1778018126 | 10.56° C | 62% | 916.9 hPa | - | 0 m/s | - | - |
| 1778017226 | 11.11° C | 61% | 916.9 hPa | - | 0 m/s | - | - |
| 1778016326 | 11.11° C | 60% | 916.8 hPa | - | 0 m/s | - | - |
| 1778015425 | 11.11° C | 60% | 916.7 hPa | - | 0 m/s | - | - |
| 1778014526 | 11.11° C | 60% | 916.7 hPa | - | 0 m/s | - | - |
| 1778013626 | 11.11° C | 59% | 916.8 hPa | - | 0 m/s | - | - |
* Rain since midnight (hover to see other rain measurements)
** Current wind speed in m/s (hover to see current wind gust speed)